Change the Weather History Date:

Monday, January 27, 2014

  Actual Average Record
Temperature  
Mean Temperature 6 °F -  
Max Temperature 12 °F 26 °F 50 °F (2002)
Min Temperature 1 °F 10 °F -13 °F (2005)
Degree Days  
Heating Degree Days 58    
Moisture  
Dew Point -2 °F    
Average Humidity 74    
Maximum Humidity 82    
Minimum Humidity 63    
Precipitation  
Precipitation 0.00 in - - ()
Sea Level Pressure  
Sea Level Pressure 29.90 in    
Wind  
Wind Speed 21 mph (WNW)    
Max Wind Speed 28 mph    
Max Gust Speed 39 mph    
Visibility 1 miles    
Events Snow    
Averages and records for this station are not official NWS values.
T = Trace of Precipitation, MM = Missing Value Source: NWS Daily Summary

Daily Weather History Graph

Daily Weather History Graph

Search for Another Location

Airport or City:

Trip Planner

Search our weather history database for the weather conditions in past years. The results will help you decide how hot, cold, wet, or windy it might be!

Date:

Astronomy

Jan. 27, 2014 Rise Set
Actual Time 8:07 AM EST 5:41 PM EST
Civil Twilight 7:35 AM EST 6:13 PM EST
Nautical Twilight 6:59 AM EST 6:48 PM EST
Astronomical Twilight 6:24 AM EST 7:23 PM EST
Moon 4:49 AM EST (1/27) 2:24 PM EST (1/27)
Length of Visible Light 10h 37m
Length of Day
9h 34m
Waning Crescent, 15% of the Moon is Illuminated
Jan 27
Waning Crescent
Jan 30
New
Feb 6
First Quarter
Feb 14
Full
Feb 22
Last Quarter

Hourly Weather History & Observations

Time (EST) Temp. Windchill Dew Point Humidity Pressure Visibility Wind Dir Wind Speed Gust Speed Precip Events Conditions
12:15 AM 12.4 °F -6.4 °F 6.8 °F 78% 29.41 in 1.2 mi NNW 21.9 mph 27.6 mph N/A Snow Light Snow
12:34 AM 11.7 °F -7.4 °F 6.8 °F 81% 29.42 in 0.8 mi NNW 21.9 mph 32.2 mph N/A Snow Light Snow
12:55 AM 11.3 °F -9.4 °F 6.3 °F 80% 29.45 in 0.5 mi NNW 26.5 mph 36.8 mph N/A Snow Snow
1:15 AM 11.8 °F -7.6 °F 6.1 °F 78% 29.47 in 0.8 mi NW 23.0 mph 38.0 mph N/A Snow Light Snow
1:34 AM 11.8 °F -9.1 °F 6.8 °F 80% 29.48 in 0.8 mi NW 27.6 mph 39.1 mph N/A Snow Snow
1:55 AM 11.7 °F -8.2 °F 6.8 °F 81% 29.50 in 0.8 mi NW 24.2 mph 36.8 mph N/A Snow Light Snow
2:15 AM 10.9 °F -8.3 °F 5.9 °F 80% 29.52 in 0.8 mi NW 21.9 mph 35.7 mph N/A Snow Snow
2:34 AM 10.8 °F -9.8 °F 5.0 °F 78% 29.55 in 1.0 mi NW 25.3 mph 32.2 mph N/A Snow Light Snow
2:55 AM 10.4 °F -10.3 °F 4.5 °F 77% 29.57 in 1.2 mi NW 25.3 mph 35.7 mph N/A Snow Light Snow
3:15 AM 10.2 °F -10.1 °F 4.6 °F 78% 29.59 in 1.0 mi NW 24.2 mph 35.7 mph N/A Snow Light Snow
3:34 AM 10.0 °F -10.4 °F 4.8 °F 79% 29.61 in 0.8 mi NW 24.2 mph 36.8 mph N/A Snow Snow
3:55 AM 9.3 °F -12.5 °F 4.6 °F 81% 29.63 in 0.5 mi NW 27.6 mph 36.8 mph N/A Snow Light Snow
4:15 AM 8.2 °F -13.6 °F 1.9 °F 76% 29.65 in 1.0 mi NW 26.5 mph 35.7 mph N/A Snow Light Snow
4:34 AM 7.9 °F -11.9 °F 1.2 °F 74% 29.67 in 1.0 mi NW 20.7 mph 39.1 mph N/A Snow Light Snow
4:55 AM 7.0 °F -15.3 °F -0.6 °F 71% 29.69 in 1.2 mi NW 26.5 mph 34.5 mph N/A Snow Light Snow
5:15 AM 7.2 °F -14.2 °F 0.7 °F 75% 29.71 in 1.2 mi NW 24.2 mph 33.4 mph N/A Snow Light Snow
5:34 AM 6.4 °F -16.4 °F 0.3 °F 76% 29.73 in 1.0 mi WNW 27.6 mph 34.5 mph N/A Snow Light Snow
5:55 AM 6.4 °F -16.0 °F 0.3 °F 76% 29.75 in 1.0 mi NW 26.5 mph 34.5 mph N/A Snow Light Snow
6:14 AM 5.9 °F -15.5 °F -1.1 °F 73% 29.76 in 1.5 mi NW 23.0 mph 32.2 mph N/A Snow Light Snow
6:35 AM 5.4 °F -15.3 °F -1.5 °F 73% 29.77 in 2.0 mi NW 20.7 mph 32.2 mph N/A Snow Light Snow
6:55 AM 5.0 °F -15.2 °F -2.2 °F 72% 29.80 in 2.0 mi NW 19.6 mph 29.9 mph N/A   Haze
7:14 AM 5.0 °F -16.7 °F -2.2 °F 72% 29.81 in 3.0 mi NW 23.0 mph 31.1 mph N/A   Haze
7:35 AM 4.5 °F -17.4 °F -4.0 °F 68% 29.82 in 2.5 mi NW 23.0 mph 36.8 mph N/A Snow Light Snow
7:55 AM 4.5 °F -15.9 °F -4.5 °F 66% 29.84 in 3.0 mi NW 19.6 mph 29.9 mph N/A   Haze
8:14 AM 4.1 °F -17.4 °F -5.6 °F 64% 29.85 in 2.5 mi NW 21.9 mph 32.2 mph N/A   Haze
8:35 AM 4.1 °F -17.9 °F -6.2 °F 63% 29.87 in 3.0 mi NW 23.0 mph 33.4 mph N/A   Haze
8:55 AM 3.7 °F -16.9 °F -4.5 °F 69% 29.88 in 1.5 mi WNW 19.6 mph 27.6 mph N/A   Haze
9:14 AM 3.0 °F -19.3 °F -3.6 °F 74% 29.89 in 0.2 mi WNW 23.0 mph 33.4 mph N/A Snow Snow
9:35 AM 2.8 °F -17.0 °F -5.1 °F 70% 29.92 in 0.8 mi WNW 17.3 mph 27.6 mph N/A   Haze
9:55 AM 2.8 °F -17.0 °F -6.3 °F 66% 29.92 in 1.5 mi WNW 17.3 mph 26.5 mph N/A   Haze
10:14 AM 2.5 °F -18.0 °F -5.6 °F 69% 29.93 in 1.0 mi WNW 18.4 mph 25.3 mph N/A   Haze
10:35 AM 2.3 °F -19.3 °F -5.8 °F 69% 29.94 in 0.8 mi WNW 20.7 mph 29.9 mph N/A Snow Light Snow
10:55 AM 2.1 °F -17.3 °F -4.9 °F 72% 29.95 in 0.5 mi WNW 16.1 mph 26.5 mph N/A Snow Light Snow
11:14 AM 1.8 °F -18.9 °F -4.5 °F 75% 29.96 in 0.2 mi WNW 18.4 mph 26.5 mph N/A Snow Snow
11:35 AM 1.9 °F -18.7 °F -4.9 °F 73% 29.97 in 0.5 mi WNW 18.4 mph 25.3 mph N/A Snow Light Snow
11:54 AM 1.8 °F -17.8 °F -5.4 °F 72% 29.98 in 0.5 mi WNW 16.1 mph 27.6 mph N/A Snow Light Snow
12:15 PM 1.6 °F -18.6 °F -4.9 °F 74% 29.99 in 0.5 mi WNW 17.3 mph 26.5 mph N/A Snow Light Snow
12:35 PM 1.8 °F -18.9 °F -6.0 °F 70% 29.98 in 0.8 mi WNW 18.4 mph 24.2 mph N/A Snow Light Snow
12:54 PM 1.4 °F -17.6 °F -6.0 °F 71% 29.99 in 0.8 mi WNW 15.0 mph 20.7 mph N/A Snow Light Snow
1:15 PM 1.8 °F -16.4 °F -5.3 °F 72% 29.99 in 0.5 mi WNW 13.8 mph 23.0 mph N/A Snow Light Snow
1:35 PM 1.8 °F -18.9 °F -5.8 °F 71% 30.00 in 0.8 mi West 18.4 mph 23.0 mph N/A Snow Light Snow
1:54 PM 1.9 °F -17.5 °F -5.6 °F 71% 30.00 in 0.8 mi WNW 16.1 mph 24.2 mph N/A Snow Light Snow
2:15 PM 1.9 °F -17.5 °F -6.9 °F 67% 30.01 in 1.0 mi WNW 16.1 mph 23.0 mph N/A Snow Light Snow
2:35 PM 1.9 °F -16.2 °F -5.8 °F 70% 30.01 in 0.8 mi WNW 13.8 mph 19.6 mph N/A Snow Light Snow
2:54 PM 1.4 °F -17.6 °F -6.0 °F 71% 30.02 in 0.5 mi WNW 15.0 mph 24.2 mph N/A Snow Light Snow
3:15 PM 1.9 °F -16.9 °F -7.4 °F 65% 30.02 in 1.0 mi WNW 15.0 mph - N/A   Haze
3:34 PM 2.1 °F -16.6 °F -6.3 °F 68% 30.03 in 0.8 mi WNW 15.0 mph 23.0 mph N/A Snow Light Snow
3:55 PM 1.6 °F -16.7 °F -5.4 °F 72% 30.04 in 0.5 mi WNW 13.8 mph 26.5 mph N/A Snow Light Snow
4:15 PM 1.9 °F -18.1 °F -4.4 °F 75% 30.04 in 0.5 mi WNW 17.3 mph 20.7 mph N/A Snow Light Snow
4:34 PM 1.9 °F -18.1 °F -4.0 °F 76% 30.05 in 0.2 mi WNW 17.3 mph 21.9 mph N/A Snow Snow
4:55 PM 2.3 °F -17.1 °F -5.1 °F 71% 30.06 in 1.0 mi West 16.1 mph 21.9 mph N/A Snow Light Snow
5:15 PM 2.3 °F -16.4 °F -5.4 °F 70% 30.07 in 1.2 mi WNW 15.0 mph - N/A Snow Light Snow
5:34 PM 2.3 °F -15.0 °F -4.4 °F 74% 30.07 in 0.8 mi WNW 12.7 mph - N/A Snow Light Snow
5:55 PM 2.7 °F -15.3 °F -4.9 °F 71% 30.07 in 1.0 mi WNW 13.8 mph 23.0 mph N/A Snow Light Snow
6:15 PM 2.8 °F -16.4 °F -5.1 °F 70% 30.08 in 1.5 mi WNW 16.1 mph 21.9 mph N/A Snow Light Snow
6:35 PM 2.8 °F -17.5 °F -4.2 °F 73% 30.09 in 1.0 mi WNW 18.4 mph 25.3 mph N/A Snow Light Snow
6:55 PM 3.0 °F -16.7 °F -3.5 °F 74% 30.09 in 0.8 mi WNW 17.3 mph 25.3 mph N/A Snow Snow
7:14 PM 2.8 °F -18.1 °F -3.8 °F 74% 30.10 in 1.0 mi West 19.6 mph 24.2 mph N/A Snow Light Snow
7:35 PM 3.0 °F -18.3 °F -2.7 °F 77% 30.11 in 1.0 mi WNW 20.7 mph - N/A Snow Light Snow
7:55 PM 3.2 °F -15.9 °F -2.2 °F 78% 30.12 in 0.8 mi WNW 16.1 mph 25.3 mph N/A Snow Snow
8:14 PM 3.2 °F -17.1 °F -2.7 °F 76% 30.12 in 0.8 mi WNW 18.4 mph 24.2 mph N/A Snow Light Snow
8:35 PM 3.2 °F -15.3 °F -2.4 °F 78% 30.13 in 0.8 mi WNW 15.0 mph 25.3 mph N/A Snow Snow
8:55 PM 2.8 °F -17.5 °F -3.8 °F 74% 30.12 in 1.2 mi WNW 18.4 mph 24.2 mph N/A Snow Light Snow
9:14 PM 3.2 °F -19.5 °F -2.2 °F 78% 30.12 in 0.5 mi West 24.2 mph 27.6 mph N/A Snow Snow
9:35 PM 3.2 °F -17.6 °F -1.5 °F 81% 30.13 in 0.2 mi West 19.6 mph 31.1 mph N/A Snow Snow
9:55 PM 3.4 °F -18.3 °F -1.3 °F 81% 30.13 in 0.5 mi West 21.9 mph 27.6 mph N/A Snow Heavy Snow
10:14 PM 3.9 °F -17.1 °F -0.8 °F 81% 30.14 in 0.5 mi West 20.7 mph 27.6 mph N/A Snow Snow
10:35 PM 3.9 °F -16.6 °F -0.6 °F 82% 30.14 in 0.2 mi West 19.6 mph 28.8 mph N/A Snow Heavy Snow
10:55 PM 4.1 °F -13.4 °F -0.9 °F 80% 30.14 in 0.8 mi WNW 13.8 mph 24.2 mph N/A Snow Snow
11:15 PM 4.1 °F -16.4 °F -0.4 °F 82% 30.14 in 0.5 mi West 19.6 mph 25.3 mph N/A Snow Snow
11:35 PM 4.5 °F -16.4 °F -0.2 °F 81% 30.14 in 0.5 mi West 20.7 mph 27.6 mph N/A Snow Heavy Snow
11:54 PM 4.5 °F -15.9 °F -0.0 °F 82% 30.14 in 0.5 mi West 19.6 mph 26.5 mph N/A Snow Snow